[Date Prev][Date Next][Thread Prev][Thread Next] - [Date Index][Thread Index][Author Index]

2 Line ISS Keps 8-13



ISS 
1 25544U 98067A   03225.34256944  .00015971  00000-0  19070-3 0  3301
2 25544  51.6320  92.5621 0008036 120.6216 224.6380 15.61176664269925



----
Via the sarex mailing list at AMSAT.ORG courtesy of AMSAT-NA.
To unsubscribe, send "unsubscribe sarex" to Majordomo@amsat.org



AMSAT Top AMSAT Home